Weather History for KAUS - November, 2012

Change the Weather History Date:

Thursday, November 22, 2012

  Actual Average Record
Temperature  
Mean Temperature 61 °F 56 °F  
Max Temperature 80 °F 69 °F 87 °F (1983)
Min Temperature 42 °F 43 °F 32 °F (1964)
Degree Days  
Heating Degree Days 4 10  
Month to date heating degree days 113 145  
Since 1 July heating degree days 183 196  
Cooling Degree Days 0 1  
Month to date cooling degree days 48 32  
Year to date cooling degree days 3115 2735  
Growing Degree Days 17 (Base 50)    
Moisture  
Dew Point 51 °F    
Average Humidity 70    
Maximum Humidity 100    
Minimum Humidity 39    
Precipitation  
Precipitation 0.00 in 0.09 in 4.36 in (2004)
Month to date precipitation 0.00 2.25  
Year to date precipitation 34.30 32.21  
Snow  
Snow 0.00 in - - ()
Month to date snowfall 0.0  
Since 1 July snowfall 0.0  
Since 1 September snowfall 0.0  
Snow Depth 0.00 in    
Sea Level Pressure  
Sea Level Pressure 30.11 in    
Wind  
Wind Speed 6 mph (South)    
Max Wind Speed 21 mph    
Max Gust Speed 26 mph    
Visibility 9 miles    
Events Fog    
T = Trace of Precipitation, MM = Missing Value Source: NWS Daily Summary

Daily Weather History Graph

Daily Weather History Graph

Search for Another Location

Airport or City:

Trip Planner

Search our weather history database for the weather conditions in past years. The results will help you decide how hot, cold, wet, or windy it might be!

Date:

Astronomy

Nov. 22, 2012 Rise Set
Actual Time 7:02 AM CST 5:31 PM CST
Civil Twilight 6:36 AM CST 5:57 PM CST
Nautical Twilight 6:07 AM CST 6:26 PM CST
Astronomical Twilight 5:38 AM CST 6:55 PM CST
Moon 1:58 PM CST (11/22) 1:44 AM CST (11/22)
Length of Visible Light 11h 20m
Length of Day
10h 28m
Waxing Gibbous, 71% of the Moon is Illuminated
Nov 22
Waxing Gibbous
Nov 28
Full
Dec 6
Last Quarter
Dec 13
New
Dec 19
First Quarter

Hourly Weather History & Observations

Time (CST) Temp. Windchill Dew Point Humidity Pressure Visibility Wind Dir Wind Speed Gust Speed Precip Events Conditions
12:53 AM 48.9 °F - 44.1 °F 83% 30.14 in 10.0 mi Calm Calm - N/A   Scattered Clouds
1:53 AM 48.0 °F - 44.1 °F 86% 30.13 in 10.0 mi Calm Calm - N/A   Scattered Clouds
2:53 AM 48.9 °F - 46.9 °F 93% 30.13 in 10.0 mi West 3.5 mph - N/A   Partly Cloudy
3:53 AM 45.0 °F 43.5 °F 44.1 °F 97% 30.14 in 10.0 mi SSW 3.5 mph - N/A   Clear
4:53 AM 46.0 °F 43.9 °F 45.0 °F 96% 30.14 in 8.0 mi South 4.6 mph - N/A   Clear
5:53 AM 45.0 °F - 44.1 °F 97% 30.14 in 6.0 mi Calm Calm - N/A Fog Clear
6:53 AM 45.0 °F - 45.0 °F 100% 30.15 in 4.0 mi Calm Calm - N/A Fog Scattered Clouds
7:53 AM 50.0 °F - 48.9 °F 96% 30.15 in 3.0 mi Calm Calm - N/A Fog Scattered Clouds
8:53 AM 59.0 °F - 55.9 °F 90% 30.16 in 5.0 mi South 6.9 mph - N/A Fog Scattered Clouds
9:53 AM 69.1 °F - 55.9 °F 63% 30.16 in 10.0 mi SSW 10.4 mph - N/A   Mostly Cloudy
10:53 AM 71.1 °F - 55.0 °F 57% 30.15 in 10.0 mi South 11.5 mph 19.6 mph N/A   Mostly Cloudy
11:53 AM 73.0 °F - 55.0 °F 53% 30.12 in 10.0 mi South 15.0 mph - N/A   Mostly Cloudy
12:53 PM 78.1 °F - 55.0 °F 45% 30.10 in 10.0 mi South 16.1 mph - N/A   Mostly Cloudy
1:53 PM 79.0 °F - 54.0 °F 42% 30.07 in 10.0 mi South 12.7 mph - N/A   Scattered Clouds
2:53 PM 80.1 °F - 54.0 °F 40% 30.05 in 10.0 mi South 17.3 mph 20.7 mph N/A   Scattered Clouds
3:53 PM 78.1 °F - 52.0 °F 40% 30.04 in 10.0 mi South 15.0 mph 26.5 mph N/A   Scattered Clouds
4:53 PM 77.0 °F - 53.1 °F 43% 30.04 in 10.0 mi SSW 10.4 mph 18.4 mph N/A   Scattered Clouds
5:53 PM 69.1 °F - 52.0 °F 54% 30.06 in 10.0 mi South 6.9 mph - N/A   Partly Cloudy
6:53 PM 63.0 °F - 51.1 °F 65% 30.07 in 10.0 mi South 4.6 mph - N/A   Partly Cloudy
7:53 PM 63.0 °F - 53.1 °F 70% 30.10 in 10.0 mi South 3.5 mph - N/A   Clear
8:53 PM 60.1 °F - 53.1 °F 78% 30.11 in 10.0 mi South 4.6 mph - N/A   Clear
9:53 PM 55.9 °F - 52.0 °F 87% 30.12 in 10.0 mi Calm Calm - N/A   Clear
10:53 PM 54.0 °F - 50.0 °F 86% 30.13 in 10.0 mi Calm Calm - N/A   Clear
11:53 PM 54.0 °F - 51.1 °F 90% 30.13 in 10.0 mi Calm Calm - N/A   Partly Cloudy